QPF
0.00 0.00 0.00 0.00 0.00 0.00 0.00 0.00 0.02 0.01 0.00 0.00 0.00 0.00 0.00 0.00 0.00 0.00 0.00 0.00 0.00 0.00 0.00 0.00 0.00 0.00 0.00 0.00 0.00 0.00 0.00 0.00 0.00 0.00 0.01 0.01 0.01 0.00 0.00 0.00 0.00 0.00 0.00 0.00
0.00 0.00 0.00 0.00 0.00 0.00 0.00 0.00 0.00 0.00 0.00 0.00 0.00 0.00 0.00 0.00 0.00 0.00 0.00 0.00 0.00 0.01 0.00 0.00 0.00 0.00 0.00 0.00 0.00 0.00 0.01 0.01 0.01 0.01 0.01 0.01 0.00 0.00 0.00 0.00 0.00 0.00 0.00 0.00
0.00 0.00 0.00 0.00 0.00 0.00 0.00 0.00 0.00 0.01 0.00 0.00 0.00 0.00 0.00 0.00 0.00 0.00 0.00 0.00 0.01 0.00 0.00 0.00 0.00 0.00 0.00 0.00 0.00 0.00 0.00 0.00 0.01 0.01 0.01 0.01 0.00 0.00 0.00 0.00 0.00 0.00 0.00 0.00
0.00 0.00 0.00 0.00 0.00 0.00 0.00 0.00 0.00 0.00 0.00 0.00 0.00 0.01 0.00 0.00 0.00 0.00 0.00 0.00 0.01 0.00 0.00 0.00 0.00 0.00 0.00 0.00 0.00 0.00 0.00 0.00 0.00 0.00 0.00 0.00 0.00 0.00 0.00 0.00 0.00 0.00 0.00 0.00
0.00 0.00 0.00 0.00 0.00 0.00 0.00 0.00 0.00 0.00 0.00 0.00 0.00 0.00 0.01 0.01 0.01 0.01 0.00 0.00 0.00 0.00 0.00 0.00 0.00 0.00 0.00 0.00 0.00 0.00 0.00 0.00 0.00 0.00 0.00 0.01 0.01 0.01 0.00 0.00 0.00 0.00 0.00 0.00
0.00 0.00 0.01 0.00 0.00 0.00 0.00 0.00 0.00 0.00 0.00 0.01 0.00 0.00 0.01 0.01 0.01 0.02 0.01 0.01 0.00 0.00 0.00 0.00 0.00 0.00 0.00 0.01 0.00 0.00 0.00 0.00 0.00 0.00 0.00 0.00 0.00 0.01 0.00 0.00 0.00 0.00 0.00 0.00
0.01 0.01 0.01 0.01 0.01 0.00 0.00 0.01 0.02 0.02 0.01 0.01 0.00 0.00 0.01 0.01 0.01 0.01 0.01 0.01 0.00 0.00 0.00 0.00 0.00 0.00 0.01 0.01 0.01 0.00 0.00 0.00 0.00 0.00 0.00 0.00 0.00 0.00 0.00 0.00 0.00 0.00 0.00 0.01
0.00 0.01 0.01 0.00 0.01 0.01 0.01 0.01 0.02 0.03 0.02 0.01 0.00 0.00 0.00 0.00 0.01 0.01 0.00 0.00 0.00 0.00 0.00 0.00 0.00 0.01 0.01 0.01 0.01 0.01 0.00 0.00 0.00 0.00 0.00 0.00 0.00 0.00 0.00 0.00 0.00 0.00 0.00 0.00
0.00 0.01 0.01 0.00 0.00 0.01 0.01 0.01 0.02 0.02 0.02 0.01 0.01 0.01 0.00 0.00 0.00 0.00 0.00 0.00 0.00 0.00 0.00 0.00 0.01 0.01 0.01 0.01 0.01 0.01 0.00 0.00 0.00 0.00 0.00 0.00 0.00 0.00 0.00 0.00 0.01 0.01 0.01 0.00
0.00 0.00 0.00 0.00 0.01 0.01 0.00 0.00 0.01 0.02 0.03 0.02 0.01 0.01 0.02 0.01 0.00 0.00 0.00 0.00 0.00 0.00 0.00 0.00 0.00 0.01 0.01 0.01 0.01 0.01 0.01 0.00 0.00 0.00 0.00 0.00 0.00 0.00 0.00 0.00 0.00 0.01 0.01 0.00
0.00 0.00 0.00 0.00 0.00 0.01 0.01 0.01 0.01 0.02 0.02 0.03 0.03 0.03 0.02 0.01 0.00 0.00 0.00 0.00 0.00 0.00 0.00 0.00 0.00 0.00 0.00 0.01 0.01 0.01 0.00 0.00 0.00 0.00 0.00 0.00 0.00 0.00 0.00 0.01 0.00 0.00 0.00 0.00
0.00 0.00 0.00 0.00 0.00 0.00 0.00 0.01 0.01 0.02 0.02 0.02 0.03 0.03 0.01 0.01 0.00 0.00 0.00 0.00 0.00 0.00 0.00 0.00 0.00 0.00 0.00 0.00 0.00 0.01 0.01 0.00 0.00 0.00 0.00 0.00 0.00 0.00 0.00 0.01 0.00 0.00 0.00 0.00
0.01 0.01 0.01 0.01 0.01 0.00 0.00 0.00 0.00 0.01 0.01 0.01 0.03 0.02 0.01 0.01 0.00 0.00 0.00 0.00 0.00 0.00 0.00 0.00 0.00 0.00 0.00 0.00 0.00 0.00 0.00 0.00 0.00 0.00 0.00 0.00 0.00 0.00 0.00 0.01 0.01 0.01 0.00 0.00
0.02 0.02 0.01 0.02 0.01 0.00 0.00 0.00 0.00 0.01 0.01 0.01 0.01 0.01 0.01 0.00 0.00 0.00 0.00 0.00 0.00 0.00 0.00 0.00 0.00 0.00 0.00 0.00 0.00 0.00 0.00 0.00 0.00 0.00 0.00 0.00 0.01 0.01 0.01 0.01 0.01 0.01 0.01 0.01
0.02 0.03 0.02 0.01 0.00 0.00 0.00 0.00 0.00 0.00 0.00 0.01 0.01 0.00 0.00 0.00 0.00 0.00 0.00 0.00 0.00 0.00 0.00 0.00 0.00 0.00 0.00 0.01 0.01 0.02 0.02 0.02 0.02 0.01 0.00 0.00 0.00 0.01 0.01 0.01 0.01 0.01 0.02 0.01
0.02 0.03 0.02 0.01 0.00 0.00 0.00 0.00 0.00 0.00 0.00 0.00 0.00 0.00 0.00 0.00 0.00 0.00 0.00 0.00 0.00 0.00 0.00 0.00 0.00 0.00 0.01 0.02 0.02 0.02 0.02 0.01 0.01 0.01 0.01 0.00 0.00 0.01 0.01 0.01 0.01 0.01 0.01 0.02
0.01 0.03 0.03 0.02 0.00 0.01 0.01 0.00 0.00 0.00 0.00 0.00 0.01 0.00 0.00 0.00 0.00 0.00 0.00 0.00 0.00 0.00 0.01 0.00 0.00 0.00 0.01 0.01 0.01 0.01 0.01 0.01 0.02 0.02 0.02 0.01 0.01 0.00 0.00 0.01 0.01 0.01 0.01 0.01
0.01 0.02 0.03 0.02 0.01 0.02 0.01 0.00 0.00 0.00 0.00 0.00 0.00 0.00 0.00 0.00 0.00 0.00 0.00 0.00 0.00 0.00 0.01 0.01 0.00 0.00 0.00 0.00 0.01 0.01 0.01 0.01 0.02 0.02 0.02 0.02 0.01 0.01 0.01 0.01 0.01 0.01 0.01 0.01
0.00 0.01 0.02 0.03 0.02 0.01 0.00 0.00 0.00 0.00 0.01 0.00 0.01 0.00 0.00 0.00 0.00 0.00 0.00 0.00 0.00 0.00 0.00 0.00 0.00 0.00 0.01 0.01 0.01 0.01 0.01 0.01 0.01 0.01 0.01 0.02 0.02 0.01 0.01 0.01 0.01 0.01 0.01 0.01
0.00 0.01 0.03 0.04 0.03 0.02 0.01 0.00 0.00 0.01 0.01 0.01 0.01 0.00 0.00 0.00 0.01 0.01 0.00 0.00 0.00 0.00 0.00 0.00 0.00 0.00 0.00 0.01 0.01 0.01 0.01 0.01 0.01 0.01 0.01 0.01 0.02 0.01 0.01 0.01 0.01 0.01 0.01 0.01
0.00 0.01 0.02 0.03 0.03 0.02 0.01 0.00 0.01 0.02 0.02 0.01 0.01 0.00 0.00 0.00 0.00 0.00 0.00 0.00 0.00 0.00 0.00 0.00 0.00 0.00 0.00 0.00 0.01 0.01 0.01 0.01 0.01 0.01 0.01 0.01 0.01 0.01 0.01 0.01 0.02 0.02 0.02 0.01
0.01 0.01 0.01 0.01 0.02 0.02 0.01 0.01 0.01 0.02 0.01 0.01 0.01 0.00 0.00 0.00 0.00 0.00 0.00 0.00 0.00 0.00 0.00 0.00 0.00 0.00 0.00 0.00 0.00 0.00 0.00 0.00 0.00 0.01 0.01 0.01 0.01 0.01 0.02 0.03 0.03 0.02 0.02 0.02
0.00 0.01 0.01 0.01 0.01 0.00 0.00 0.00 0.01 0.01 0.01 0.01 0.01 0.00 0.00 0.00 0.00 0.00 0.00 0.00 0.00 0.00 0.00 0.00 0.00 0.00 0.00 0.00 0.00 0.00 0.00 0.00 0.01 0.01 0.01 0.01 0.01 0.01 0.02 0.02 0.03 0.03 0.03 0.03
0.00 0.00 0.00 0.00 0.00 0.00 0.00 0.00 0.00 0.00 0.00 0.00 0.00 0.00 0.00 0.00 0.00 0.00 0.00 0.00 0.01 0.00 0.00 0.00 0.00 0.00 0.00 0.00 0.00 0.00 0.00 0.01 0.01 0.01 0.01 0.01 0.02 0.02 0.02 0.02 0.02 0.03 0.03 0.03
0.00 0.00 0.00 0.00 0.00 0.00 0.00 0.00 0.00 0.00 0.00 0.01 0.01 0.00 0.00 0.00 0.00 0.00 0.00 0.00 0.00 0.00 0.00 0.00 0.00 0.00 0.00 0.00 0.00 0.00 0.00 0.00 0.00 0.00 0.01 0.01 0.02 0.03 0.03 0.03 0.02 0.03 0.03 0.03
0.00 0.00 0.01 0.01 0.00 0.00 0.00 0.00 0.00 0.01 0.01 0.01 0.01 0.00 0.00 0.00 0.00 0.00 0.00 0.00 0.01 0.01 0.00 0.00 0.00 0.00 0.00 0.00 0.00 0.00 0.00 0.00 0.00 0.00 0.00 0.01 0.01 0.01 0.02 0.02 0.03 0.03 0.03 0.03
MSLP
1011.34 1012.27 1013.13 1013.87 1014.49 1015.01 1015.43 1015.80 1016.12 1016.40 1016.60 1016.71 1016.71 1016.57 1016.31 1015.95 1015.54 1015.13 1014.77 1014.50 1014.35 1014.31 1014.36 1014.48 1014.61 1014.74 1014.84 1014.91 1014.96 1014.99 1015.02 1015.06 1015.11 1015.16 1015.20 1015.21 1015.19 1015.12 1015.02 1014.90 1014.79 1014.71 1014.67 1014.69
1011.84 1012.65 1013.37 1013.98 1014.50 1014.95 1015.36 1015.74 1016.10 1016.42 1016.67 1016.82 1016.82 1016.66 1016.37 1015.97 1015.52 1015.09 1014.75 1014.52 1014.43 1014.47 1014.61 1014.79 1014.98 1015.12 1015.20 1015.23 1015.21 1015.18 1015.15 1015.15 1015.18 1015.24 1015.30 1015.35 1015.35 1015.31 1015.23 1015.12 1015.01 1014.92 1014.89 1014.92
1012.18 1012.84 1013.42 1013.91 1014.34 1014.74 1015.14 1015.55 1015.97 1016.36 1016.68 1016.86 1016.88 1016.72 1016.39 1015.95 1015.47 1015.03 1014.68 1014.48 1014.45 1014.55 1014.76 1015.00 1015.22 1015.37 1015.44 1015.43 1015.37 1015.28 1015.21 1015.18 1015.20 1015.27 1015.36 1015.44 1015.48 1015.47 1015.40 1015.30 1015.19 1015.11 1015.09 1015.14
1012.38 1012.90 1013.34 1013.72 1014.08 1014.45 1014.87 1015.34 1015.83 1016.30 1016.68 1016.91 1016.95 1016.78 1016.42 1015.94 1015.41 1014.93 1014.57 1014.38 1014.37 1014.52 1014.76 1015.04 1015.29 1015.46 1015.52 1015.49 1015.40 1015.29 1015.20 1015.16 1015.20 1015.29 1015.41 1015.52 1015.59 1015.61 1015.56 1015.47 1015.36 1015.29 1015.27 1015.34
1012.51 1012.91 1013.24 1013.54 1013.85 1014.21 1014.66 1015.19 1015.76 1016.30 1016.74 1017.01 1017.05 1016.86 1016.46 1015.92 1015.34 1014.81 1014.42 1014.21 1014.20 1014.35 1014.63 1014.93 1015.20 1015.38 1015.46 1015.43 1015.34 1015.23 1015.15 1015.13 1015.19 1015.31 1015.47 1015.62 1015.72 1015.76 1015.72 1015.64 1015.53 1015.46 1015.45 1015.53
1012.62 1012.93 1013.18 1013.43 1013.72 1014.10 1014.58 1015.17 1015.80 1016.39 1016.87 1017.15 1017.19 1016.97 1016.52 1015.92 1015.27 1014.68 1014.23 1013.99 1013.96 1014.11 1014.39 1014.71 1015.00 1015.20 1015.30 1015.30 1015.24 1015.16 1015.11 1015.14 1015.24 1015.40 1015.59 1015.76 1015.89 1015.94 1015.91 1015.83 1015.73 1015.65 1015.64 1015.72
1012.75 1013.00 1013.21 1013.44 1013.73 1014.12 1014.64 1015.26 1015.92 1016.54 1017.03 1017.30 1017.31 1017.04 1016.54 1015.88 1015.18 1014.53 1014.05 1013.77 1013.71 1013.85 1014.13 1014.46 1014.77 1015.00 1015.14 1015.19 1015.18 1015.15 1015.16 1015.23 1015.37 1015.57 1015.79 1015.99 1016.13 1016.18 1016.15 1016.07 1015.96 1015.87 1015.86 1015.94
1012.87 1013.10 1013.31 1013.53 1013.83 1014.25 1014.78 1015.41 1016.07 1016.68 1017.14 1017.38 1017.34 1017.03 1016.49 1015.79 1015.05 1014.38 1013.87 1013.57 1013.51 1013.65 1013.92 1014.27 1014.61 1014.89 1015.07 1015.18 1015.23 1015.27 1015.33 1015.45 1015.64 1015.86 1016.10 1016.30 1016.44 1016.49 1016.46 1016.36 1016.25 1016.16 1016.13 1016.20
1012.93 1013.17 1013.39 1013.64 1013.96 1014.38 1014.91 1015.52 1016.15 1016.71 1017.11 1017.30 1017.21 1016.87 1016.31 1015.60 1014.87 1014.22 1013.73 1013.45 1013.40 1013.56 1013.86 1014.23 1014.60 1014.92 1015.16 1015.33 1015.44 1015.54 1015.65 1015.81 1016.02 1016.26 1016.50 1016.70 1016.83 1016.87 1016.82 1016.72 1016.60 1016.51 1016.48 1016.55
1012.85 1013.12 1013.38 1013.66 1014.00 1014.42 1014.93 1015.49 1016.05 1016.53 1016.86 1016.98 1016.86 1016.51 1015.96 1015.30 1014.63 1014.04 1013.62 1013.41 1013.42 1013.62 1013.96 1014.37 1014.77 1015.14 1015.42 1015.64 1015.80 1015.94 1016.10 1016.29 1016.51 1016.74 1016.97 1017.15 1017.26 1017.29 1017.24 1017.14 1017.03 1016.94 1016.91 1016.98
1012.55 1012.88 1013.18 1013.50 1013.86 1014.27 1014.74 1015.24 1015.71 1016.10 1016.35 1016.41 1016.26 1015.92 1015.43 1014.87 1014.31 1013.85 1013.55 1013.45 1013.55 1013.83 1014.22 1014.67 1015.11 1015.50 1015.82 1016.07 1016.27 1016.44 1016.62 1016.81 1017.03 1017.25 1017.46 1017.63 1017.73 1017.75 1017.70 1017.61 1017.51 1017.44 1017.43 1017.49
1012.05 1012.43 1012.79 1013.16 1013.53 1013.93 1014.35 1014.76 1015.14 1015.43 1015.59 1015.60 1015.45 1015.15 1014.76 1014.32 1013.93 1013.64 1013.50 1013.54 1013.76 1014.12 1014.57 1015.06 1015.52 1015.93 1016.27 1016.54 1016.75 1016.94 1017.12 1017.32 1017.53 1017.74 1017.94 1018.09 1018.18 1018.21 1018.18 1018.11 1018.04 1017.99 1018.00 1018.08
1011.41 1011.85 1012.26 1012.66 1013.05 1013.43 1013.78 1014.11 1014.38 1014.57 1014.66 1014.62 1014.48 1014.25 1013.97 1013.70 1013.49 1013.39 1013.43 1013.63 1013.97 1014.41 1014.92 1015.44 1015.92 1016.33 1016.67 1016.94 1017.16 1017.36 1017.55 1017.74 1017.95 1018.16 1018.35 1018.51 1018.61 1018.66 1018.66 1018.62 1018.58 1018.57 1018.60 1018.69
1010.74 1011.23 1011.69 1012.12 1012.50 1012.85 1013.14 1013.37 1013.54 1013.62 1013.63 1013.57 1013.44 1013.28 1013.12 1013.01 1012.99 1013.08 1013.31 1013.65 1014.11 1014.63 1015.18 1015.71 1016.19 1016.60 1016.93 1017.20 1017.42 1017.63 1017.83 1018.04 1018.27 1018.49 1018.70 1018.88 1019.01 1019.09 1019.12 1019.13 1019.13 1019.14 1019.20 1019.30
1010.17 1010.70 1011.19 1011.63 1012.00 1012.29 1012.51 1012.64 1012.70 1012.68 1012.61 1012.51 1012.40 1012.30 1012.26 1012.30 1012.45 1012.71 1013.09 1013.56 1014.11 1014.69 1015.27 1015.80 1016.27 1016.67 1016.99 1017.27 1017.50 1017.73 1017.97 1018.21 1018.47 1018.74 1018.98 1019.20 1019.37 1019.49 1019.57 1019.61 1019.64 1019.69 1019.76 1019.86
1009.80 1010.35 1010.85 1011.27 1011.61 1011.84 1011.96 1011.98 1011.93 1011.81 1011.66 1011.52 1011.41 1011.36 1011.41 1011.57 1011.86 1012.26 1012.76 1013.33 1013.94 1014.56 1015.15 1015.68 1016.14 1016.53 1016.86 1017.15 1017.41 1017.68 1017.97 1018.28 1018.60 1018.92 1019.22 1019.49 1019.71 1019.87 1019.98 1020.06 1020.11 1020.17 1020.24 1020.33
1009.66 1010.21 1010.69 1011.08 1011.35 1011.49 1011.51 1011.42 1011.25 1011.03 1010.81 1010.62 1010.50 1010.48 1010.60 1010.85 1011.23 1011.73 1012.32 1012.96 1013.61 1014.25 1014.84 1015.37 1015.82 1016.22 1016.56 1016.89 1017.21 1017.54 1017.90 1018.28 1018.68 1019.07 1019.44 1019.76 1020.02 1020.22 1020.36 1020.45 1020.51 1020.56 1020.61 1020.68
1009.71 1010.23 1010.66 1010.98 1011.17 1011.22 1011.13 1010.93 1010.65 1010.34 1010.04 1009.80 1009.67 1009.67 1009.83 1010.14 1010.59 1011.15 1011.79 1012.47 1013.15 1013.80 1014.40 1014.93 1015.39 1015.81 1016.19 1016.57 1016.96 1017.37 1017.81 1018.28 1018.75 1019.21 1019.63 1020.00 1020.30 1020.52 1020.67 1020.76 1020.82 1020.85 1020.88 1020.91
1009.81 1010.28 1010.64 1010.88 1010.98 1010.92 1010.73 1010.43 1010.06 1009.67 1009.32 1009.05 1008.91 1008.92 1009.11 1009.46 1009.95 1010.56 1011.24 1011.94 1012.64 1013.30 1013.90 1014.45 1014.94 1015.39 1015.82 1016.27 1016.73 1017.22 1017.75 1018.29 1018.82 1019.34 1019.80 1020.20 1020.51 1020.74 1020.89 1020.97 1021.01 1021.02 1021.02 1021.02
1009.82 1010.21 1010.50 1010.64 1010.65 1010.51 1010.23 1009.86 1009.43 1009.00 1008.62 1008.35 1008.21 1008.25 1008.46 1008.84 1009.37 1010.01 1010.70 1011.43 1012.14 1012.82 1013.44 1014.01 1014.53 1015.03 1015.53 1016.03 1016.57 1017.13 1017.72 1018.31 1018.89 1019.43 1019.91 1020.31 1020.62 1020.84 1020.97 1021.04 1021.07 1021.06 1021.04 1021.03
1009.59 1009.91 1010.11 1010.17 1010.10 1009.90 1009.57 1009.17 1008.73 1008.30 1007.94 1007.69 1007.59 1007.66 1007.91 1008.32 1008.88 1009.53 1010.25 1010.99 1011.71 1012.41 1013.05 1013.65 1014.22 1014.77 1015.32 1015.88 1016.47 1017.08 1017.70 1018.32 1018.90 1019.44 1019.91 1020.29 1020.58 1020.78 1020.90 1020.97 1020.99 1020.99 1020.98 1020.97
1009.07 1009.31 1009.43 1009.43 1009.31 1009.08 1008.75 1008.37 1007.96 1007.58 1007.28 1007.09 1007.05 1007.17 1007.46 1007.91 1008.49 1009.16 1009.89 1010.64 1011.38 1012.09 1012.76 1013.39 1014.00 1014.59 1015.18 1015.79 1016.40 1017.03 1017.65 1018.26 1018.82 1019.33 1019.76 1020.11 1020.37 1020.55 1020.67 1020.74 1020.79 1020.82 1020.85 1020.89
1008.27 1008.43 1008.49 1008.45 1008.32 1008.10 1007.81 1007.49 1007.17 1006.88 1006.68 1006.58 1006.62 1006.81 1007.15 1007.63 1008.23 1008.91 1009.64 1010.39 1011.13 1011.85 1012.53 1013.19 1013.82 1014.44 1015.06 1015.68 1016.30 1016.92 1017.52 1018.09 1018.61 1019.06 1019.44 1019.75 1019.99 1020.16 1020.30 1020.40 1020.50 1020.59 1020.70 1020.81
1007.28 1007.38 1007.39 1007.34 1007.22 1007.05 1006.84 1006.62 1006.42 1006.26 1006.17 1006.19 1006.32 1006.58 1006.97 1007.47 1008.07 1008.74 1009.46 1010.19 1010.92 1011.63 1012.32 1012.98 1013.63 1014.26 1014.88 1015.50 1016.11 1016.69 1017.25 1017.77 1018.23 1018.64 1018.97 1019.25 1019.47 1019.66 1019.82 1019.99 1020.16 1020.35 1020.56 1020.78
1006.23 1006.27 1006.26 1006.21 1006.14 1006.04 1005.94 1005.85 1005.78 1005.76 1005.80 1005.93 1006.15 1006.47 1006.89 1007.40 1007.99 1008.63 1009.31 1010.00 1010.70 1011.39 1012.06 1012.71 1013.35 1013.98 1014.60 1015.20 1015.78 1016.33 1016.84 1017.31 1017.72 1018.08 1018.39 1018.65 1018.88 1019.10 1019.32 1019.57 1019.84 1020.14 1020.47 1020.80
1005.26 1005.25 1005.22 1005.19 1005.17 1005.17 1005.18 1005.22 1005.29 1005.41 1005.57 1005.80 1006.09 1006.45 1006.88 1007.38 1007.93 1008.52 1009.15 1009.79 1010.43 1011.08 1011.72 1012.35 1012.97 1013.58 1014.18 1014.76 1015.31 1015.83 1016.31 1016.74 1017.13 1017.46 1017.76 1018.03 1018.30 1018.57 1018.87 1019.21 1019.59 1020.01 1020.45 1020.91
Thickness
5754 5742 5734 5740 5745 5744 5742 5737 5735 5743 5758 5752 5745 5746 5755 5764 5763 5761 5761 5762 5760 5761 5764 5764 5762 5760 5757 5754 5751 5748 5744 5740 5737 5733 5729 5725 5722 5722 5721 5721 5719 5717 5716 5714
5740 5734 5746 5751 5748 5743 5740 5734 5734 5743 5755 5750 5745 5747 5758 5764 5762 5763 5763 5762 5762 5761 5761 5760 5759 5756 5754 5750 5748 5745 5742 5738 5735 5731 5728 5724 5722 5720 5718 5717 5716 5714 5712 5711
5731 5742 5752 5745 5740 5735 5735 5733 5733 5734 5745 5749 5742 5737 5750 5762 5766 5766 5767 5767 5765 5762 5759 5758 5756 5753 5751 5748 5745 5744 5740 5736 5733 5729 5726 5722 5718 5715 5713 5711 5711 5711 5710 5708
5736 5748 5746 5739 5736 5736 5727 5743 5740 5736 5728 5726 5735 5716 5741 5753 5756 5760 5761 5762 5762 5762 5761 5757 5754 5751 5749 5746 5745 5742 5739 5735 5731 5728 5722 5717 5711 5707 5708 5708 5707 5707 5707 5705
5733 5743 5739 5732 5736 5738 5735 5745 5740 5736 5728 5725 5733 5723 5731 5750 5745 5751 5757 5759 5760 5761 5759 5756 5753 5751 5749 5746 5743 5740 5737 5733 5730 5726 5721 5716 5711 5708 5707 5706 5704 5703 5703 5702
5738 5747 5744 5740 5744 5744 5742 5738 5735 5734 5725 5707 5727 5722 5720 5740 5746 5750 5754 5756 5758 5759 5757 5755 5753 5749 5745 5743 5740 5737 5733 5730 5728 5724 5720 5715 5710 5707 5704 5702 5700 5699 5698 5698
5726 5737 5745 5745 5733 5736 5734 5717 5700 5698 5699 5707 5735 5726 5725 5746 5754 5753 5751 5753 5755 5753 5751 5749 5747 5743 5740 5737 5735 5732 5729 5726 5725 5721 5718 5714 5710 5706 5702 5699 5697 5695 5693 5692
5712 5714 5733 5737 5730 5723 5725 5718 5695 5685 5692 5710 5730 5724 5732 5752 5755 5755 5754 5752 5750 5748 5745 5742 5741 5739 5736 5734 5731 5728 5726 5723 5722 5719 5716 5713 5710 5705 5702 5699 5696 5693 5691 5690
5710 5712 5734 5738 5737 5729 5718 5717 5724 5708 5705 5701 5715 5726 5735 5746 5744 5745 5746 5744 5741 5741 5740 5738 5736 5734 5732 5729 5727 5725 5723 5720 5718 5716 5713 5710 5707 5704 5700 5698 5695 5691 5689 5687
5716 5706 5722 5732 5732 5729 5725 5721 5713 5701 5686 5685 5704 5711 5711 5722 5730 5735 5735 5734 5734 5735 5734 5733 5730 5729 5727 5725 5723 5722 5719 5716 5714 5712 5710 5707 5703 5701 5698 5695 5691 5688 5686 5684
5714 5702 5709 5717 5713 5712 5715 5712 5709 5703 5700 5685 5680 5696 5729 5725 5726 5726 5727 5727 5727 5726 5726 5724 5723 5722 5721 5719 5717 5715 5713 5711 5709 5707 5705 5702 5699 5696 5694 5691 5688 5685 5682 5679
5709 5699 5695 5707 5721 5725 5717 5711 5705 5688 5688 5694 5685 5692 5731 5727 5724 5722 5719 5720 5721 5720 5719 5718 5716 5714 5713 5711 5710 5708 5706 5704 5703 5702 5699 5696 5694 5691 5688 5686 5684 5681 5678 5675
5697 5689 5678 5684 5697 5706 5705 5707 5705 5699 5692 5686 5679 5688 5723 5720 5717 5716 5713 5712 5712 5712 5710 5709 5707 5706 5704 5703 5702 5701 5699 5697 5696 5694 5692 5690 5687 5685 5683 5681 5679 5677 5674 5671
5690 5682 5676 5667 5678 5692 5692 5695 5698 5690 5678 5680 5685 5690 5702 5704 5702 5704 5704 5704 5704 5703 5701 5699 5697 5697 5696 5696 5695 5693 5691 5690 5689 5687 5685 5683 5681 5679 5678 5676 5674 5671 5669 5665
5683 5673 5679 5684 5690 5690 5688 5689 5690 5685 5684 5678 5683 5686 5691 5696 5696 5697 5697 5696 5694 5692 5692 5690 5689 5688 5688 5687 5687 5686 5684 5683 5681 5679 5677 5676 5675 5674 5671 5669 5667 5665 5662 5660
5678 5669 5672 5673 5682 5684 5681 5685 5685 5683 5683 5681 5681 5680 5694 5696 5693 5689 5688 5686 5682 5681 5682 5682 5681 5680 5679 5679 5678 5677 5676 5675 5674 5672 5670 5669 5667 5666 5663 5662 5660 5658 5656 5654
5668 5664 5658 5659 5673 5672 5667 5681 5681 5679 5681 5677 5670 5674 5683 5681 5679 5677 5678 5677 5674 5673 5673 5673 5672 5671 5671 5671 5670 5669 5669 5668 5666 5663 5661 5660 5658 5657 5656 5655 5653 5650 5648 5646
5659 5656 5651 5651 5655 5643 5669 5688 5686 5677 5676 5677 5673 5672 5672 5671 5671 5671 5671 5669 5667 5666 5665 5664 5664 5664 5664 5664 5663 5662 5661 5659 5657 5654 5652 5651 5649 5648 5647 5645 5644 5643 5641 5639
5661 5651 5643 5642 5640 5650 5665 5674 5673 5665 5662 5669 5665 5663 5663 5665 5663 5661 5665 5664 5662 5660 5659 5658 5657 5657 5656 5655 5655 5653 5651 5650 5648 5646 5644 5643 5641 5639 5637 5636 5635 5635 5633 5631
5657 5652 5640 5636 5629 5632 5652 5666 5671 5661 5647 5659 5658 5654 5653 5651 5639 5643 5654 5655 5654 5653 5651 5650 5649 5648 5646 5646 5646 5643 5641 5640 5639 5638 5638 5636 5634 5631 5629 5628 5627 5626 5626 5624
5639 5638 5633 5630 5628 5638 5651 5657 5657 5635 5633 5646 5648 5646 5643 5637 5635 5640 5645 5645 5644 5643 5642 5640 5639 5637 5637 5638 5637 5634 5632 5631 5632 5632 5631 5628 5626 5623 5622 5620 5619 5617 5616 5615
5634 5630 5629 5628 5621 5625 5646 5645 5635 5632 5639 5639 5637 5636 5633 5632 5633 5634 5633 5632 5632 5631 5630 5629 5627 5627 5628 5628 5627 5624 5623 5625 5625 5624 5621 5619 5618 5616 5615 5612 5610 5608 5606 5604
5637 5636 5632 5630 5627 5636 5639 5636 5635 5635 5631 5630 5628 5627 5625 5623 5623 5623 5623 5622 5622 5621 5619 5619 5618 5617 5618 5618 5617 5615 5615 5616 5616 5614 5612 5610 5609 5607 5606 5603 5600 5598 5596 5594
5634 5638 5631 5626 5629 5630 5629 5629 5628 5626 5623 5622 5620 5618 5616 5613 5613 5612 5612 5612 5612 5611 5610 5609 5608 5607 5607 5608 5608 5607 5607 5607 5607 5604 5603 5601 5600 5598 5595 5593 5591 5588 5586 5584
5621 5621 5618 5617 5621 5620 5619 5619 5618 5617 5615 5613 5611 5610 5608 5605 5604 5603 5602 5603 5602 5602 5601 5600 5599 5598 5598 5598 5598 5599 5599 5599 5597 5596 5595 5593 5591 5588 5585 5582 5579 5578 5576 5575
5615 5611 5606 5605 5612 5609 5608 5611 5610 5605 5603 5601 5599 5598 5599 5597 5595 5595 5594 5594 5593 5593 5593 5592 5591 5590 5589 5589 5589 5589 5590 5590 5588 5587 5586 5583 5581 5578 5574 5571 5568 5566 5565 5564